Location: Zagreb
(45.8000°N, 16.0000°E)
Time: 00:50:48
(UTC+01:00)

Transit 2A Rocket - Pass Details

Date: 05 October 2020
Orbit: 586 x 916 km, 66.7° (Epoch: 28 October)

Event Time Altitude Azimuth Distance (km) Brightness Sun altitude
Rises 17:08:37 0° 234° (SW) 3,529 10.1 12.6°
Reaches altitude 10° 17:11:16 10° 241° (WSW) 2,602 10.4 12.2°
Maximum altitude 17:17:03 43° 312° (NW) 1,262 6.6 11.2°
Drops below altitude 10° 17:22:46 10° 23° (NNE) 2,565 7.4 10.3°
Sets 17:25:23 0° 31° (NNE) 3,474 7.9 9.8°
